TIME,DELAY(SENSOR),PRES,OXYGEN,RAWTEMP,T(OPTODE),TCPHASE,FLUOR,BETA(BETA700),BETA(BETA412),BETA(BETA440),CDOM,C(CSC),ED(ED412.40),ED(ED444.00),ED(ED489.70),ED(ED554.30),LU(LU411.80),LU(LU443.40),LU(LU489.60),LU(LU554.10),COMP,TILTX,TILTY,CHECK
1378180826,5806,848.6599731445312000,47.0151710510253900,660.3065185546875000,4.6178798675537110,53.9720611572265600,53,99,87,79,78,15308,2147754249,2147423414,2148013184,2147875382,2147642368,2147058953,2148253494,2147195648,280,4,13,635
1378184422,5809,942.5100097656250000,49.3692092895507800,669.2274780273438000,4.3237109184265140,53.7498588562011700,52,98,82,80,78,15310,2147753865,2147423725,2148010596,2147872813,2147638930,2147057371,2148260589,2147198921,459,4,13,39003
1378188022,5811,956.9299926757812000,49.2849388122558600,670.5153198242188000,4.2811760902404785,53.7742500305175800,53,97,84,79,78,15308,2147752109,2147424329,2148014226,2147872685,2147638802,2147058093,2148258267,2147195840,107,4,13,22331
1378191622,5811,974.2700195312500000,49.8093109130859400,673.0317993164062000,4.1979918479919430,53.7332611083984400,53,97,88,78,78,15308,2147755739,2147427355,2148013485,2147871780,2147642349,2147057270,2148259757,2147195419,436,4,13,18130
1378195222,5809,978.4899902343750000,50.6669998168945300,675.0687866210938000,4.1306080818176270,53.6433601379394500,52,98,89,78,78,15309,2147755675,2147425142,2148012763,2147872758,2147642294,2147058541,2148260114,2147197120,501,4,13,62547
1378198822,5810,980.6500244140625000,50.7216110229492200,675.8272705078125000,4.1055049896240230,53.6415596008300800,53,99,91,79,80,15269,2147756416,2147424978,2148011145,2147874459,2147645138,2147060790,2148261476,2147197138,3344,4,13,42742
1378202422,5808,980.5000000000000000,50.6990013122558600,676.5314941406250000,4.0821948051452640,53.6596794128418000,53,98,84,77,79,15266,2147758043,2147421577,2148009252,2147871588,2147641673,2147055561,2148260617,2147197165,3362,4,13,34271
1378206022,5808,991.7500000000000000,50.7702102661132800,675.6810913085938000,4.1103458404541020,53.6395797729492200,53,98,83,79,78,15269,2147754816,2147423570,2148012745,2147871296,2147643328,2147059757,2148260562,2147197421,510,4,13,35575
1378209622,5811,991.6900024414062000,50.2363700866699200,675.0250244140625000,4.1320590972900390,53.7025413513183600,53,97,84,79,79,15267,2147757248,2147425956,2148011291,2147873554,2147643072,2147055990,2148265472,2147199314,2603,4,13,264
1378213222,5810,993.9400024414062000,50.0294418334960940,674.7205200195312000,4.1421360969543460,53.7247200012207000,52,98,86,77,80,15268,2147758363,2147424612,2148010669,2147874203,2147641353,2147061019,2148257362,2147199378,24,4,13,33281
1378216822,5809,995.7600097656250000,49.8121414184570300,674.1085205078125000,4.1623821258544920,53.7504081726074200,53,100,85,79,79,15269,2147756800,2147421357,2148014390,2147873088,2147642084,2147052708,2148258642,2147199460,3512,4,13,5252
1378220422,5810,999.2299804687500000,49.6363410949707000,674.8007202148438000,4.1394820213317870,53.7834701538085940,52,98,84,78,80,15269,2147756864,2147426998,2148012352,2147873563,2147640740,2147050898,2148263140,2147194944,227,4,13,44916
1378224022,5806,994.9000244140625000,49.7468681335449200,674.5233154296875000,4.1486611366271970,53.7606086730957000,52,96,83,78,78,15267,2147756141,2147426450,2148011766,2147873874,2147643419,2147058742,2148261266,2147194834,255,4,13,50346
1378227622,5806,1005.1099853515625000,49.9049301147460940,673.8474121093750000,4.1710190773010250,53.7284393310546900,52,98,86,78,78,15266,2147755584,2147424694,2148012150,2147874523,2147643821,2147054153,2148261696,2147199780,2927,4,13,26794
1378231222,5812,997.7100219726562000,49.6477088928222660,674.1602172851562000,4.1606731414794920,53.7739601135253900,53,98,81,78,79,15262,2147754093,2147426157,2148011593,2147873060,2147639177,2147052736,2148255725,2147200246,2,4,13,49637
1378234822,5807,1008.2399902343750000,49.8908615112304700,673.5228271484375000,4.1817550659179690,53.7282905578613300,53,97,85,78,79,15263,2147756544,2147425965,2148013558,2147872594,2147643072,2147051584,2148261312,2147197979,288,4,13,40417
1378238422,5809,1003.3099975585938000,49.1651802062988300,672.9652099609375000,4.2001948356628420,53.8248100280761700,52,97,85,77,79,15263,2147755236,2147424219,2148012425,2147871570,2147644525,2147055113,2148263680,2147198034,325,4,13,45632
1378242022,5808,1005.1799926757812000,49.4397811889648440,673.5501708984375000,4.1808509826660160,53.7952804565429700,52,100,85,78,79,15265,2147755885,2147423716,2148011894,2147874861,2147640365,2147056374,2148265252,2147197686,3381,4,13,49350
1378245622,5805,1002.0300292968750000,49.4472618103027340,673.9910888671875000,4.1662640571594240,53.7931404113769500,53,98,85,80,80,15262,2147756114,2147429686,2148013924,2147874724,2147642642,2147056749,2148260013,2147197677,3552,4,13,40415
1378249222,5808,996.2500000000000000,49.6533699035644500,675.6630859375000000,4.1109428405761720,53.7924804687500000,52,97,83,77,79,15263,2147758180,2147426907,2148012187,2147873545,2147640859,2147059318,2148262747,2147200036,3290,4,13,39178
1378252822,5810,994.0499877929688000,49.7164497375488300,675.3900146484375000,4.1199817657470700,53.7737503051757800,52,99,84,78,79,15264,2147757220,2147422747,2148013266,2147875446,2147639670,2147051355,2148261348,2147199076,2960,4,13,23824
1378256422,5807,998.0599975585938000,49.8560409545898440,675.8699951171875000,4.1040940284729000,53.7651290893554700,52,104,84,78,79,15262,2147758509,2147424429,2148011300,2147873042,2147643154,2147059072,2148259620,2147196726,3383,4,13,38821
1378260022,5811,1000.0599975585938000,49.6818504333496100,675.6826782226562000,4.1102919578552250,53.7865409851074200,53,97,85,78,79,15259,2147757211,2147424658,2148013010,2147876352,2147641261,2147057170,2148261769,2147198482,3553,4,13,53458
1378263622,5812,1001.1699829101562000,49.9310493469238300,675.8264160156250000,4.1055369377136230,53.7522697448730500,51,98,85,78,80,15260,2147753353,2147427693,2148010861,2147871762,2147640438,2147061147,2148266523,2147199762,3557,4,13,20696
1378267222,5807,1001.9099731445312000,50.0959281921386700,675.0059204101562000,4.1326918601989750,53.7235183715820300,51,95,85,79,79,15263,2147756809,2147425362,2148008512,2147871524,2147642203,2147051748,2148262189,2147198326,3393,4,13,39297
1378270822,5810,1008.4600219726562000,50.1266212463378900,675.5791015625000000,4.1137218475341800,53.7230491638183600,52,96,86,78,78,15260,2147757220,2147428278,2148010642,2147874313,2147642614,2147050532,2148258642,2147196992,3070,4,13,19329
1378274422,5808,1004.7999877929688000,50.2549400329589840,675.3572998046875000,4.1210632324218750,53.7041816711425800,53,99,86,78,78,15262,2147756562,2147428379,2148013540,2147873051,2147641408,2147053942,2148265828,2147199396,420,4,13,13355
1378278022,5809,998.4799804687500000,50.0133514404296900,675.3715820312500000,4.1205902099609375,53.7366981506347660,54,99,84,78,79,15259,2147758400,2147428269,2148010395,2147874724,2147642038,2147057563,2148261668,2147197138,3349,4,13,58275
1378281622,5812,1001.6699829101562000,49.8199501037597660,675.7161254882812000,4.1091861724853520,53.7659111022949200,52,97,89,77,79,15261,2147758253,2147427236,2148012297,2147876297,2147640256,2147056740,2148260361,2147200338,32,4,13,40699
1378285222,5809,1003.2299804687500000,50.0998802185058600,674.9503784179688000,4.1345272064208980,53.7215995788574200,52,99,84,78,79,15260,2147756397,2147427309,2148012141,2147873124,2147642450,2147055369,2148260827,2147198454,3415,4,13,2359
1378288822,5809,999.4400024414062000,49.8125801086425800,674.7725830078125000,4.1404089927673340,53.7569389343261700,53,99,84,78,79,15261,2147755648,2147424905,2148014747,2147872923,2147641508,2147058249,2148262217,2147198189,67,4,13,31792
1378292422,5810,1004.5200195312500000,49.6811103820800800,675.2974243164062000,4.1230430603027340,53.7803382873535160,52,96,85,78,80,15255,2147756288,2147429805,2148012086,2147876059,2147641828,2147056822,2148262637,2147194560,148,4,13,41271
1378296022,5810,1005.4000244140625000,49.9752502441406250,675.5156250000000000,4.1158261299133300,53.7461891174316400,52,103,85,78,80,15256,2147756589,2147429129,2148010304,2147875840,2147642285,2147056009,2148257755,2147196626,37,4,13,8689
1378299622,5807,997.4199829101562000,49.8110809326171900,675.5275878906250000,4.1154270172119140,53.7662391662597660,52,99,86,79,79,15256,2147755785,2147429037,2148012617,2147874139,2147641709,2147056987,2148262025,2147197202,3410,4,13,48573
1378303222,5814,983.1500244140625000,50.2280006408691400,677.1646118164062000,4.0612339973449710,53.7284317016601560,53,99,83,78,79,15258,2147757915,2147424832,2148011346,2147872512,2147642560,2147051593,2148261257,2147196763,712,4,13,51788
1378306822,5808,1011.1300048828125000,50.4272003173828100,676.2410888671875000,4.0918102264404300,53.6897087097168000,52,100,87,79,79,15254,2147758080,2147425856,2148014610,2147873581,2147642166,2147053266,2148262290,2147199104,704,4,13,26085
1378310422,5808,1005.7000122070312000,49.3570899963378900,675.3883056640625000,4.1200370788574220,53.8278694152832000,52,102,88,80,79,15246,2147753947,2147425554,2148017508,2147873088,2147637641,2147060882,2148259977,2147197065,14,4,13,61871
1378314022,5807,1012.9199829101562000,49.0124397277832000,674.0244140625000000,4.1651649475097660,53.8562011718750000,53,97,82,78,79,15241,2147756041,2147425801,2148015341,2147873307,2147641069,2147055405,2148257654,2147195776,3261,4,13,5198
1378317622,5810,1007.7800292968750000,48.8446388244628900,674.0048828125000000,4.1658082008361820,53.8775215148925800,52,97,87,78,80,15240,2147755821,2147425901,2148012717,2147874944,2147640530,2147052022,2148261714,2147194779,810,4,13,19397
1378321222,5809,1010.3400268554688000,48.2999305725097660,673.9152832031250000,4.1687741279602050,53.9586296081543000,52,97,86,77,78,15241,2147754733,2147425417,2148014116,2147874550,2147640146,2147054601,2148259419,2147194550,2843,4,13,35693
1378324556,5807,1015.7899780273438000,48.9542999267578100,673.9686279296875000,4.1670088768005370,53.8669281005859400,53,101,85,78,80,15289,2147753252,2147425636,2148013101,2147873307,2147638738,2147046811,2148260589,2147198336,3219,4,13,8999
